DW4379 Weather Reports


time (UTC)temp
C
wind
direction
speed
KPH
gust
KPH
rain 1hr
cm
rain 24hr
cm
rain mn
cm
humidity
%
barometer
mb
20260906110004 22 2 1.6 8.0 0.00 0.00 0.00 91 1013.4
20260906105504 22 31 1.6 8.0 0.00 0.00 0.00 91 1013.4
20260906105003 22 31 1.6 4.8 0.00 0.00 0.00 91 1013.3
20260906104504 22 22 3.2 11.3 0.00 0.00 0.00 92 1013.3
20260906104003 22 30 3.2 11.3 0.00 0.00 0.00 91 1013.2
20260906103717 22 34 1.6 11.3 0.00 0.00 0.00 92 1013.2
20260906103003 22 25 1.6 8.0 0.00 0.00 0.00 92 1013.3
20260906102717 22 15 3.2 6.4 0.00 0.00 0.00 92 1013.3
20260906102004 22 3 1.6 8.0 0.00 0.00 0.00 92 1013.4
20260906101503 22 9 1.6 9.7 0.00 0.00 0.00 93 1013.4
20260906101004 22 9 1.6 9.7 0.00 0.00 0.00 93 1013.4
20260906100503 22 360 1.6 8.0 0.00 0.00 0.00 93 1013.4
20260906100003 22 4 1.6 8.0 0.00 0.00 0.00 93 1013.4
20260906095503 22 9 1.6 6.4 0.00 0.00 0.00 93 1013.2
20260906095004 22 8 3.2 8.0 0.00 0.00 0.00 93 1013.1
20260906094504 22 4 3.2 8.0 0.00 0.00 0.00 93 1013.0
20260906094003 22 359 1.6 8.0 0.00 0.00 0.00 93 1013.1
20260906093503 22 3 1.6 6.4 0.00 0.00 0.00 93 1013.0
20260906093218 22 4 1.6 6.4 0.00 0.00 0.00 93 1013.1
20260906092503 22 6 1.6 4.8 0.00 0.00 0.00 93 1012.9
20260906092218 22 5 1.6 4.8 0.00 0.00 0.00 93 1013.0
20260906091719 22 2 1.6 4.8 0.00 0.00 0.00 93 1013.0
20260906091003 22 4 1.6 4.8 0.00 0.00 0.00 93 1012.9
20260906090503 22 358 1.6 4.8 0.00 0.00 0.00 93 1012.9
20260906090004 22 358 1.6 4.8 0.00 0.00 0.00 93 1012.9
20260906085503 22 2 1.6 4.8 0.00 0.00 0.00 93 1012.9
20260906085004 22 3 1.6 4.8 0.00 0.00 0.00 93 1012.8
20260906084718 22 360 1.6 4.8 0.00 0.00 0.00 93 1012.8
20260906084003 22 1 1.6 4.8 0.00 0.00 0.00 93 1012.8
20260906083504 23 3 1.6 3.2 0.00 0.00 0.00 93 1012.8
20260906083003 23 5 1.6 4.8 0.00 0.00 0.00 93 1012.7
20260906082503 23 1 1.6 4.8 0.00 0.00 0.00 92 1012.7
20260906082217 23 356 1.6 4.8 0.00 0.00 0.00 92 1012.7
20260906081503 23 354 1.6 4.8 0.00 0.00 0.00 92 1012.8
20260906081003 23 7 0.0 3.2 0.00 0.00 0.00 92 1012.7
20260906080503 23 6 1.6 4.8 0.00 0.00 0.00 92 1012.6
20260906080003 23 9 1.6 9.7 0.00 0.00 0.00 92 1012.5
20260906075503 23 19 1.6 9.7 0.00 0.00 0.00 92 1012.5
20260906075004 23 17 1.6 6.4 0.00 0.00 0.00 92 1012.6
20260906074718 23 6 1.6 6.4 0.00 0.00 0.00 92 1012.5
20260906074004 23 360 1.6 6.4 0.00 0.00 0.00 92 1012.6
20260906073503 23 4 1.6 6.4 0.00 0.00 0.00 92 1012.6
20260906073004 23 5 1.6 4.8 0.00 0.00 0.00 92 1012.5
20260906072503 23 356 0.0 3.2 0.00 0.00 0.00 92 1012.5
20260906072003 23 360 0.0 3.2 0.00 0.00 0.00 92 1012.5
20260906071718 23 360 0.0 3.2 0.00 0.00 0.00 92 1012.5
20260906071003 23 355 0.0 3.2 0.00 0.00 0.00 91 1012.5
20260906070503 23 358 0.0 3.2 0.00 0.00 0.00 91 1012.5
20260906070004 23 358 0.0 3.2 0.00 0.00 0.00 91 1012.5
20260906065503 23 355 0.0 4.8 0.00 0.00 0.00 91 1012.6
20260906065003 23 355 0.0 4.8 0.00 0.00 0.00 90 1012.6
20260906064504 23 356 0.0 3.2 0.00 0.00 0.00 90 1012.6
20260906064003 23 356 0.0 3.2 0.00 0.00 0.00 90 1012.7
20260906063503 23 357 0.0 3.2 0.00 0.00 0.00 90 1012.8
20260906063003 23 358 0.0 3.2 0.00 0.00 0.00 90 1012.7
20260906062503 23 1 0.0 3.2 0.00 0.00 0.00 90 1012.6
20260906062003 23 355 0.0 3.2 0.00 0.00 0.00 89 1012.7
20260906061503 23 354 0.0 3.2 0.00 0.00 0.00 89 1012.8
20260906061218 23 357 0.0 3.2 0.00 0.00 0.00 89 1012.9
20260906060503 23 358 0.0 3.2 0.00 0.00 0.00 89 1012.8
20260906060004 23 360 0.0 3.2 0.00 0.00 0.00 89 1012.8
20260906055503 23 360 0.0 3.2 0.00 0.00 0.00 88 1012.8
20260906055003 23 359 0.0 1.6 0.00 0.00 0.00 88 1012.8
20260906054503 23 359 0.0 1.6 0.00 0.00 0.00 88 1012.8
20260906054004 24 360 0.0 3.2 0.00 0.00 0.00 88 1012.8
20260906053503 24 358 0.0 3.2 0.00 0.00 0.00 88 1012.8
20260906053218 24 358 0.0 3.2 0.00 0.00 0.00 88 1012.7
20260906052503 24 352 0.0 3.2 0.00 0.00 0.00 87 1012.8
20260906052003 24 355 0.0 3.2 0.00 0.00 0.00 87 1012.7
20260906051717 24 351 0.0 3.2 0.00 0.00 0.00 87 1012.7
20260906051218 24 351 1.6 9.7 0.00 0.00 0.00 87 1012.7
20260906050717 24 354 1.6 9.7 0.00 0.00 0.00 87 1012.7
20260906050218 24 357 1.6 6.4 0.00 0.00 0.00 87 1012.8
20260906045504 25 358 1.6 8.0 0.00 0.00 0.00 86 1012.7
20260906045003 25 360 1.6 8.0 0.00 0.00 0.00 86 1012.7
20260906044503 25 357 1.6 6.4 0.00 0.00 0.00 86 1012.6
20260906044003 25 1 1.6 9.7 0.00 0.00 0.00 85 1012.7
20260906043503 25 358 1.6 9.7 0.00 0.00 0.00 85 1012.6
20260906043003 25 358 3.2 8.0 0.00 0.00 0.00 85 1012.6
20260906042503 25 3 3.2 14.5 0.00 0.00 0.00 85 1012.4
20260906042003 25 360 3.2 14.5 0.00 0.00 0.00 84 1012.5
20260906041503 25 1 3.2 11.3 0.00 0.00 0.00 84 1012.4
20260906041003 25 2 3.2 12.9 0.00 0.00 0.00 83 1012.4
20260906040503 26 357 1.6 12.9 0.00 0.00 0.00 83 1012.4
20260906040009 26 359 3.2 9.7 0.00 0.00 0.00 83 1012.4
20260906035503 26 357 3.2 9.7 0.00 0.00 0.00 83 1012.3
20260906035003 26 2 3.2 11.3 0.00 0.00 0.00 82 1012.3
20260906034504 26 2 3.2 12.9 0.00 0.00 0.00 82 1012.4
20260906034003 26 358 3.2 12.9 0.00 0.00 0.00 82 1012.3
20260906033503 26 359 3.2 9.7 0.00 0.00 0.00 82 1012.4
20260906033003 26 359 3.2 9.7 0.00 0.00 0.00 81 1012.2
20260906032504 27 7 3.2 9.7 0.00 0.00 0.00 81 1012.2
20260906032004 27 4 3.2 9.7 0.00 0.00 0.00 80 1012.2
20260906031505 27 360 3.2 9.7 0.00 0.00 0.00 80 1012.2
20260906031003 27 359 3.2 12.9 0.00 0.00 0.00 80 1012.2
20260906030504 27 356 3.2 12.9 0.00 0.00 0.00 79 1012.1
20260906030217 27 356 3.2 11.3 0.00 0.00 0.00 79 1012.1
20260906025503 28 4 3.2 9.7 0.00 0.00 0.00 79 1011.9
20260906025217 28 6 4.8 11.3 0.00 0.00 0.00 78 1012.0
20260906024503 28 360 4.8 11.3 0.00 0.00 0.00 77 1011.8
20260906024003 28 1 4.8 11.3 0.00 0.00 0.00 76 1011.9
20260906023503 28 6 4.8 11.3 0.00 0.00 0.00 75 1011.8
20260906023004 28 6 3.2 11.3 0.00 0.00 0.00 75 1011.7
20260906022503 28 11 3.2 12.9 0.00 0.00 0.00 75 1011.7
20260906022003 28 11 4.8 12.9 0.00 0.00 0.00 74 1011.5
20260906021718 28 6 3.2 12.9 0.00 0.00 0.00 74 1011.5
20260906021004 28 3 3.2 12.9 0.00 0.00 0.00 74 1011.6
20260906020504 28 354 3.2 8.0 0.00 0.00 0.00 75 1011.5
20260906020003 29 350 3.2 11.3 0.00 0.00 0.00 75 1011.4
20260906015503 29 353 3.2 11.3 0.00 0.00 0.00 75 1011.4
20260906015004 29 356 4.8 11.3 0.00 0.00 0.00 75 1011.4
20260906014718 29 360 4.8 12.9 0.00 0.00 0.00 75 1011.4
20260906014003 29 10 6.4 14.5 0.00 0.00 0.00 75 1011.2
20260906013504 30 359 4.8 14.5 0.00 0.00 0.00 75 1011.2
20260906013219 30 2 4.8 14.5 0.00 0.00 0.00 75 1011.1
20260906012503 30 11 4.8 12.9 0.00 0.00 0.00 75 1010.8
20260906012004 30 2 3.2 11.3 0.00 0.00 0.00 74 1010.7
20260906011503 30 359 4.8 17.7 0.00 0.00 0.00 74 1010.7
20260906011219 30 357 6.4 17.7 0.00 0.00 0.00 75 1010.6
20260906010504 31 360 6.4 22.5 0.00 0.00 0.00 75 1010.6
20260906010219 31 2 4.8 22.5 0.00 0.00 0.00 75 1010.7
20260906005504 31 357 3.2 12.9 0.00 0.00 0.00 73 1010.5
20260906005003 32 357 3.2 12.9 0.00 0.00 0.00 72 1010.4
20260906004503 32 5 0.0 4.8 0.00 0.00 0.00 71 1010.3
20260906004218 32 0 0.0 0.0 0.00 0.00 0.00 72 1010.2
20260906003503 32 347 1.6 8.0 0.00 0.00 0.00 71 1010.2
20260906003004 32 346 1.6 8.0 0.00 0.00 0.00 70 1010.1
20260906002504 32 354 1.6 11.3 0.00 0.00 0.00 71 1010.1
20260906002003 32 355 3.2 11.3 0.00 0.00 0.00 70 1010.2
20260906001503 32 353 1.6 8.0 0.00 0.00 0.00 70 1010.2
20260906001004 32 338 0.0 1.6 0.00 0.00 0.00 70 1010.2
20260906000504 33 343 0.0 1.6 0.00 0.00 0.00 69 1010.2
20260906000004 33 349 0.0 4.8 0.00 0.00 0.00 69 1010.3
20260905235504 33 347 0.0 4.8 0.00 0.00 0.00 68 1010.2
20260905235218 33 348 0.0 3.2 0.00 0.00 0.00 68 1010.2
20260905234503 33 341 0.0 3.2 0.00 0.00 0.00 67 1010.1
20260905234003 33 332 0.0 3.2 0.00 0.00 0.00 66 1010.0
20260905233503 33 337 1.6 4.8 0.00 0.00 0.00 66 1009.9
20260905233218 33 338 1.6 4.8 0.00 0.00 0.00 66 1010.0
20260905232504 33 325 0.0 4.8 0.00 0.00 0.00 65 1009.9
20260905232003 34 311 0.0 3.2 0.00 0.00 0.00 65 1009.9
20260905231503 34 301 0.0 1.6 0.00 0.00 0.00 64 1009.9
20260905231003 34 329 0.0 4.8 0.00 0.00 0.00 63 1010.0
20260905230503 34 330 1.6 4.8 0.00 0.00 0.00 63 1009.9
20260905230004 34 326 1.6 3.2 0.00 0.00 0.00 62 1010.0
20260905225503 35 338 1.6 3.2 0.00 0.00 0.00 62 1009.9
20260905225004 35 348 1.6 11.3 0.00 0.00 0.00 61 1009.8
20260905224503 35 348 3.2 11.3 0.00 0.00 0.00 61 1009.8
20260905224003 35 348 3.2 9.7 0.00 0.00 0.00 61 1009.8
20260905223719 35 345 3.2 9.7 0.00 0.00 0.00 60 1009.8
20260905223003 35 334 1.6 6.4 0.00 0.00 0.00 59 1009.9
20260905222503 35 340 3.2 8.0 0.00 0.00 0.00 59 1009.8
20260905222004 35 338 1.6 8.0 0.00 0.00 0.00 58 1009.8
20260905221504 35 322 1.6 4.8 0.00 0.00 0.00 58 1009.8
20260905221003 35 330 1.6 6.4 0.00 0.00 0.00 57 1009.8
20260905220504 35 345 1.6 12.9 0.00 0.00 0.00 58 1009.8
20260905220217 35 341 1.6 12.9 0.00 0.00 0.00 57 1009.8
20260905215718 35 344 1.6 9.7 0.00 0.00 0.00 59 1009.8
20260905215004 35 346 1.6 9.7 0.00 0.00 0.00 57 1009.8
20260905214718 35 332 1.6 4.8 0.00 0.00 0.00 57 1009.9
20260905214004 35 333 1.6 8.0 0.00 0.00 0.00 57 1010.0
20260905213503 35 329 1.6 8.0 0.00 0.00 0.00 56 1010.0
20260905213004 35 321 1.6 4.8 0.00 0.00 0.00 57 1009.9
20260905212503 35 311 1.6 3.2 0.00 0.00 0.00 57 1009.9
20260905212003 35 311 1.6 3.2 0.00 0.00 0.00 57 1009.8
20260905211504 35 336 1.6 6.4 0.00 0.00 0.00 57 1009.9
20260905211003 36 338 1.6 6.4 0.00 0.00 0.00 56 1009.9
20260905210503 35 326 0.0 4.8 0.00 0.00 0.00 57 1010.0
20260905210004 35 312 0.0 3.2 0.00 0.00 0.00 58 1010.1
20260905205718 35 328 1.6 6.4 0.00 0.00 0.00 57 1010.1
20260905205003 35 336 1.6 11.3 0.00 0.00 0.00 58 1010.1
20260905204503 35 313 1.6 6.4 0.00 0.00 0.00 57 1010.2
20260905204003 36 306 1.6 3.2 0.00 0.00 0.00 57 1010.3
20260905203503 36 302 1.6 3.2 0.00 0.00 0.00 56 1010.3
20260905203003 36 315 1.6 4.8 0.00 0.00 0.00 54 1010.3
20260905202503 36 319 1.6 4.8 0.00 0.00 0.00 53 1010.3
20260905202004 36 311 1.6 3.2 0.00 0.00 0.00 52 1010.4
20260905201503 36 308 1.6 3.2 0.00 0.00 0.00 52 1010.5
20260905201003 36 306 1.6 4.8 0.00 0.00 0.00 53 1010.6
20260905200503 36 309 1.6 4.8 0.00 0.00 0.00 54 1010.6
20260905200004 36 310 1.6 3.2 0.00 0.00 0.00 53 1010.7
20260905195503 36 312 1.6 3.2 0.00 0.00 0.00 53 1010.6
20260905195218 36 316 1.6 4.8 0.00 0.00 0.00 53 1010.7
20260905194504 36 320 0.0 4.8 0.00 0.00 0.00 54 1010.6
20260905194004 36 325 1.6 8.0 0.00 0.00 0.00 56 1010.6
20260905193503 36 333 1.6 8.0 0.00 0.00 0.00 55 1010.6
20260905193004 36 329 1.6 8.0 0.00 0.00 0.00 55 1010.8
20260905192717 36 313 1.6 4.8 0.00 0.00 0.00 55 1010.8
20260905192003 36 318 1.6 3.2 0.00 0.00 0.00 58 1010.8
20260905191504 36 346 1.6 8.0 0.00 0.00 0.00 58 1010.8
20260905191004 36 333 1.6 8.0 0.00 0.00 0.00 58 1010.7
20260905190504 36 300 1.6 6.4 0.00 0.00 0.00 59 1010.9
20260905190004 36 286 0.0 6.4 0.00 0.00 0.00 57 1010.9
20260905185503 36 272 0.0 3.2 0.00 0.00 0.00 58 1010.9
20260905185218 36 273 1.6 3.2 0.00 0.00 0.00 58 1011.1
20260905184503 36 319 0.0 4.8 0.00 0.00 0.00 58 1011.1
20260905184003 36 321 0.0 4.8 0.00 0.00 0.00 59 1011.2
20260905183503 36 276 0.0 3.2 0.00 0.00 0.00 58 1011.3
20260905183003 36 275 0.0 3.2 0.00 0.00 0.00 58 1011.4
20260905182717 35 276 1.6 3.2 0.00 0.00 0.00 58 1011.4
20260905182003 35 311 1.6 4.8 0.00 0.00 0.00 58 1011.5
20260905181504 35 319 0.0 3.2 0.00 0.00 0.00 59 1011.7
20260905181004 35 98 0.0 3.2 0.00 0.00 0.00 61 1011.8
20260905180504 35 71 1.6 4.8 0.00 0.00 0.00 62 1011.7
20260905180004 34 44 3.2 8.0 0.00 0.00 0.00 62 1011.8
20260905175717 34 33 3.2 8.0 0.00 0.00 0.00 63 1011.9
20260905175004 35 339 0.0 4.8 0.00 0.00 0.00 62 1011.9
20260905174503 35 138 0.0 3.2 0.00 0.00 0.00 62 1011.9
20260905174003 34 181 0.0 3.2 0.00 0.00 0.00 63 1011.9
20260905173503 34 227 0.0 3.2 0.00 0.00 0.00 62 1012.0
20260905173004 34 235 0.0 3.2 0.00 0.00 0.00 62 1012.0
20260905172503 34 103 0.0 3.2 0.00 0.00 0.00 64 1012.0
20260905172218 33 19 0.0 3.2 0.00 0.00 0.00 65 1012.0
20260905171504 33 351 0.0 3.2 0.00 0.00 0.00 65 1012.0
20260905171004 33 218 0.0 3.2 0.00 0.00 0.00 65 1012.2
20260905170504 33 180 1.6 3.2 0.00 0.00 0.00 66 1012.2
20260905170004 33 131 0.0 3.2 0.00 0.00 0.00 66 1012.3
20260905165504 33 225 0.0 3.2 0.00 0.00 0.00 65 1012.3
20260905165003 33 128 1.6 8.0 0.00 0.00 0.00 66 1012.4
20260905164718 33 105 1.6 8.0 0.00 0.00 0.00 68 1012.4
20260905164003 32 118 1.6 6.4 0.00 0.00 0.00 69 1012.3
20260905163504 32 136 1.6 4.8 0.00 0.00 0.00 69 1012.5
20260905163003 32 127 1.6 4.8 0.00 0.00 0.00 69 1012.7
20260905162504 32 117 3.2 6.4 0.00 0.00 0.00 71 1012.6
20260905162217 32 113 3.2 6.4 0.00 0.00 0.00 71 1012.7
20260905161503 32 102 3.2 9.7 0.00 0.00 0.00 71 1012.7
20260905161003 32 107 3.2 9.7 0.00 0.00 0.00 71 1012.7
20260905160504 31 115 1.6 9.7 0.00 0.00 0.00 71 1012.7
20260905160217 31 112 3.2 9.7 0.00 0.00 0.00 72 1012.8
20260905155503 31 123 1.6 6.4 0.00 0.00 0.00 71 1012.6
20260905155003 31 131 1.6 6.4 0.00 0.00 0.00 72 1012.7
20260905154503 31 107 3.2 8.0 0.00 0.00 0.00 74 1012.7
20260905154217 31 102 3.2 8.0 0.00 0.00 0.00 74 1012.6
20260905153503 31 115 3.2 8.0 0.00 0.00 0.00 74 1012.7
20260905153003 31 131 1.6 6.4 0.00 0.00 0.00 74 1012.7
20260905152503 31 90 1.6 6.4 0.00 0.00 0.00 74 1012.9
20260905152004 30 81 1.6 6.4 0.00 0.00 0.00 75 1013.0
20260905151718 30 91 3.2 8.0 0.00 0.00 0.00 75 1013.0
20260905151003 30 97 3.2 8.0 0.00 0.00 0.00 75 1013.0
20260905150504 30 87 3.2 8.0 0.00 0.00 0.00 76 1013.1
20260905150004 30 92 1.6 8.0 0.00 0.00 0.00 78 1013.0
20260905145503 30 95 3.2 8.0 0.00 0.00 0.00 77 1013.0
20260905145004 30 99 3.2 9.7 0.00 0.00 0.00 77 1012.8
20260905144503 30 113 3.2 9.7 0.00 0.00 0.00 77 1012.8
20260905144003 30 116 4.8 12.9 0.00 0.00 0.00 78 1012.8
20260905143503 29 109 4.8 12.9 0.00 0.00 0.00 78 1012.8
20260905143003 29 109 4.8 11.3 0.00 0.00 0.00 79 1012.8
20260905142504 29 109 4.8 11.3 0.00 0.00 0.00 79 1012.9
20260905142004 29 108 4.8 14.5 0.00 0.00 0.00 79 1012.9
20260905141503 29 103 6.4 14.5 0.00 0.00 0.00 80 1013.0
20260905141003 29 87 4.8 14.5 0.00 0.00 0.00 80 1013.1
20260905140503 29 63 3.2 8.0 0.00 0.00 0.00 79 1013.0
20260905140004 28 58 0.0 4.8 0.00 0.00 0.00 81 1012.8
20260905135504 28 215 0.0 1.6 0.00 0.00 0.00 80 1012.7
20260905135218 28 223 0.0 1.6 0.00 0.00 0.00 79 1012.7
20260905134504 28 230 0.0 1.6 0.00 0.00 0.00 82 1012.6
20260905134004 27 0 0.0 0.0 0.00 0.00 0.00 82 1012.5
20260905133503 27 230 0.0 1.6 0.00 0.00 0.00 83 1012.5
20260905133004 27 230 0.0 1.6 0.00 0.00 0.00 84 1012.5
20260905132503 27 230 0.0 1.6 0.00 0.00 0.00 84 1012.5
20260905132218 27 0 0.0 0.0 0.00 0.00 0.00 84 1012.5
20260905131503 26 235 0.0 1.6 0.00 0.00 0.00 85 1012.5
20260905131003 26 235 0.0 1.6 0.00 0.00 0.00 85 1012.4
20260905130503 26 236 0.0 1.6 0.00 0.00 0.00 84 1012.4
20260905130004 26 0 0.0 0.0 0.00 0.00 0.00 86 1012.5
20260905125503 26 0 0.0 0.0 0.00 0.00 0.00 85 1012.6
20260905125004 26 139 0.0 1.6 0.00 0.00 0.00 85 1012.6
20260905124503 26 139 0.0 1.6 0.00 0.00 0.00 86 1012.7
20260905124004 26 0 0.0 0.0 0.00 0.00 0.00 88 1012.7
20260905123504 25 0 0.0 0.0 0.00 0.00 0.00 88 1012.6
20260905123004 25 0 0.0 0.0 0.00 0.00 0.00 89 1012.5
20260905122503 25 0 0.0 0.0 0.00 0.00 0.00 89 1012.4
20260905122003 25 0 0.0 0.0 0.00 0.00 0.00 90 1012.5
20260905121717 25 0 0.0 0.0 0.00 0.00 0.00 90 1012.5
20260905121218 25 0 0.0 0.0 0.00 0.00 0.00 90 1012.5
20260905120504 25 0 0.0 0.0 0.00 0.00 0.00 91 1012.5
20260905120004 25 0 0.0 0.0 0.00 0.00 0.00 91 1012.4
20260905115503 25 0 0.0 0.0 0.00 0.00 0.00 91 1012.5
20260905115004 24 0 0.0 0.0 0.00 0.00 0.00 91 1012.5
20260905114504 24 0 0.0 0.0 0.00 0.00 0.00 91 1012.4
20260905114218 24 0 0.0 0.0 0.00 0.00 0.00 91 1012.4
20260905113504 24 0 0.0 0.0 0.00 0.00 0.00 91 1012.4
20260905113218 24 0 0.0 0.0 0.00 0.00 0.00 91 1012.3
20260905112504 24 0 0.0 0.0 0.00 0.00 0.00 91 1012.4
20260905112003 24 0 0.0 0.0 0.00 0.00 0.00 91 1012.3
20260905111504 24 0 0.0 0.0 0.00 0.00 0.00 90 1012.2
20260905111003 25 0 0.0 0.0 0.00 0.00 0.00 90 1012.3
20260905110504 25 0 0.0 0.0 0.00 0.00 0.00 89 1012.2